{"data":{"norad_id":59375,"epoch":"2026-05-25T00:45:34.331904Z","epoch_age_seconds":72009,"freshness":"FRESH","line1":"1 59375U 24062B   26145.03164736  .00047233  00000+0  14101-2 0  9998","line2":"2 59375  53.1609 263.6268 0002109  84.4749 275.6494 15.34179561121324","mean_motion":15.34179561,"eccentricity":0.0002109,"inclination_deg":53.1609,"raan_deg":263.6268,"arg_perigee_deg":84.4749,"mean_anomaly_deg":275.6494,"bstar":0.0014101,"rev_number":12132,"period_min":93.861242621521,"perigee_km":461.91563841734,"apogee_km":464.80138122338,"semimajor_km":6841.4955098204,"source":"CELESTRAK","updated_at":"2026-05-25T13:38:18.913381Z"}}